| time (UTC) | temp F | wind direction | speed MPH | gust MPH | rain 1hr in | rain 24hr in | rain mn in | humidity % | barometer mb |
| 20260507064817 | 55 | 221 | 1.0 | 7.0 | 0.00 | 4.61 | 0.01 | 82 | 1013.9 |
| 20260507064315 | 55 | 157 | 2.0 | 8.0 | 0.00 | 4.61 | 0.01 | 83 | 1013.7 |
| 20260507063814 | 55 | 147 | 5.0 | 8.0 | 0.00 | 4.61 | 0.01 | 83 | 1013.8 |
| 20260507063331 | 55 | 119 | 5.0 | 8.0 | 0.00 | 4.61 | 0.01 | 83 | 1013.7 |
| 20260507062829 | 55 | 131 | 5.0 | 8.0 | 0.00 | 4.61 | 0.01 | 83 | 1013.7 |
| 20260507062327 | 55 | 110 | 3.0 | 7.0 | 0.00 | 4.61 | 0.01 | 83 | 1013.7 |
| 20260507061846 | 54 | 113 | 3.0 | 4.0 | 0.00 | 4.61 | 0.01 | 84 | 1013.8 |
| 20260507061322 | 54 | 123 | 2.0 | 3.0 | 0.00 | 4.61 | 0.01 | 84 | 1013.7 |
| 20260507060820 | 54 | 232 | 1.0 | 2.0 | 0.00 | 4.61 | 0.01 | 83 | 1013.8 |
| 20260507060315 | 54 | 232 | 0.0 | 4.0 | 0.00 | 4.84 | 0.01 | 83 | 1013.7 |
| 20260507055832 | 53 | 232 | 2.0 | 5.0 | 0.00 | 4.84 | 0.01 | 83 | 1013.7 |
| 20260507055331 | 53 | 232 | 4.0 | 9.0 | 0.00 | 4.84 | 0.01 | 83 | 1013.8 |
| 20260507054827 | 53 | 19 | 3.0 | 11.0 | 0.00 | 4.84 | 0.01 | 82 | 1013.7 |
| 20260507054447 | 53 | 24 | 8.0 | 13.0 | 0.00 | 4.84 | 0.01 | 82 | 1013.6 |
| 20260507053829 | 53 | 360 | 8.0 | 13.0 | 0.00 | 4.84 | 0.01 | 83 | 1013.5 |
| 20260507053349 | 53 | 298 | 8.0 | 12.0 | 0.00 | 4.84 | 0.01 | 82 | 1013.5 |
| 20260507052825 | 53 | 355 | 9.0 | 13.0 | 0.00 | 4.84 | 0.01 | 81 | 1013.4 |
| 20260507052322 | 53 | 320 | 8.0 | 15.0 | 0.00 | 4.84 | 0.01 | 81 | 1013.5 |
| 20260507051839 | 53 | 314 | 10.0 | 15.0 | 0.00 | 4.84 | 0.01 | 82 | 1013.4 |
| 20260507051359 | 53 | 316 | 5.0 | 10.0 | 0.00 | 4.84 | 0.01 | 82 | 1013.4 |
| 20260507050817 | 53 | 344 | 6.0 | 11.0 | 0.00 | 4.84 | 0.01 | 82 | 1013.4 |
| 20260507050316 | 53 | 46 | 8.0 | 11.0 | 0.00 | 5.16 | 0.01 | 82 | 1013.3 |
| 20260507045842 | 53 | 18 | 5.0 | 12.0 | 0.00 | 5.16 | 0.01 | 82 | 1013.2 |
| 20260507045336 | 54 | 355 | 9.0 | 12.0 | 0.00 | 5.16 | 0.01 | 81 | 1013.2 |
| 20260507044853 | 54 | 19 | 5.0 | 14.0 | 0.00 | 5.16 | 0.01 | 81 | 1013.2 |
| 20260507044330 | 54 | 297 | 8.0 | 15.0 | 0.00 | 5.16 | 0.01 | 80 | 1013.1 |
| 20260507043828 | 53 | 292 | 8.0 | 17.0 | 0.00 | 5.16 | 0.01 | 80 | 1013.0 |
| 20260507043348 | 53 | 280 | 7.0 | 14.0 | 0.00 | 5.16 | 0.01 | 83 | 1013.0 |
| 20260507042828 | 53 | 286 | 8.0 | 12.0 | 0.00 | 5.16 | 0.01 | 84 | 1013.0 |
| 20260507042327 | 52 | 19 | 5.0 | 9.0 | 0.00 | 5.16 | 0.01 | 86 | 1013.0 |
| 20260507041842 | 52 | 308 | 4.0 | 11.0 | 0.00 | 5.16 | 0.01 | 86 | 1013.0 |
| 20260507041338 | 52 | 302 | 4.0 | 12.0 | 0.00 | 5.16 | 0.01 | 85 | 1012.9 |
| 20260507040857 | 52 | 16 | 6.0 | 12.0 | 0.00 | 5.16 | 0.01 | 85 | 1013.0 |
| 20260507040337 | 52 | 9 | 4.0 | 10.0 | 0.00 | 5.16 | 0.01 | 86 | 1012.8 |
| 20260507035814 | 52 | 44 | 3.0 | 6.0 | 0.00 | 5.16 | 0.01 | 86 | 1012.8 |
| 20260507035333 | 52 | 43 | 1.0 | 3.0 | 0.00 | 5.16 | 0.01 | 87 | 1012.9 |
| 20260507034831 | 52 | 43 | 2.0 | 4.0 | 0.00 | 5.16 | 0.01 | 87 | 1012.8 |
| 20260507034327 | 52 | 43 | 3.0 | 4.0 | 0.00 | 5.16 | 0.01 | 87 | 1012.8 |
| 20260507033827 | 52 | 17 | 0.0 | 0.0 | 0.00 | 5.16 | 0.01 | 86 | 1012.8 |
| 20260507033327 | 53 | 17 | 0.0 | 0.0 | 0.00 | 5.16 | 0.01 | 86 | 1012.9 |
| 20260507032826 | 53 | 17 | 0.0 | 8.0 | 0.00 | 5.16 | 0.01 | 85 | 1012.9 |
| 20260507032323 | 52 | 17 | 2.0 | 8.0 | 0.00 | 5.16 | 0.01 | 85 | 1012.8 |
| 20260507031820 | 53 | 20 | 3.0 | 6.0 | 0.00 | 5.16 | 0.01 | 85 | 1012.9 |
| 20260507031338 | 53 | 360 | 3.0 | 8.0 | 0.00 | 5.16 | 0.01 | 85 | 1012.8 |
| 20260507030839 | 52 | 304 | 4.0 | 8.0 | 0.00 | 5.16 | 0.01 | 86 | 1012.8 |
| 20260507030338 | 52 | 27 | 3.0 | 6.0 | 0.00 | 5.20 | 0.01 | 87 | 1012.8 |
| 20260507025817 | 51 | 32 | 4.0 | 6.0 | 0.00 | 5.20 | 0.01 | 88 | 1012.7 |
| 20260507025315 | 52 | 306 | 2.0 | 3.0 | 0.00 | 5.20 | 0.01 | 88 | 1012.9 |
| 20260507024832 | 52 | 306 | 2.0 | 3.0 | 0.00 | 5.20 | 0.01 | 88 | 1012.8 |
| 20260507024330 | 52 | 306 | 0.0 | 2.0 | 0.00 | 5.20 | 0.01 | 88 | 1012.7 |
| 20260507023829 | 52 | 306 | 0.0 | 2.0 | 0.00 | 5.20 | 0.01 | 87 | 1012.7 |
| 20260507023325 | 52 | 306 | 0.0 | 2.0 | 0.00 | 5.20 | 0.01 | 86 | 1012.5 |
| 20260507022824 | 52 | 306 | 0.0 | 4.0 | 0.00 | 5.20 | 0.01 | 86 | 1012.6 |
| 20260507022344 | 52 | 306 | 2.0 | 4.0 | 0.00 | 5.20 | 0.01 | 85 | 1012.6 |
| 20260507021821 | 52 | 329 | 2.0 | 5.0 | 0.00 | 5.20 | 0.01 | 84 | 1012.5 |
| 20260507021320 | 53 | 263 | 3.0 | 9.0 | 0.00 | 5.20 | 0.01 | 83 | 1012.5 |
| 20260507020818 | 53 | 329 | 3.0 | 14.0 | 0.00 | 5.20 | 0.01 | 83 | 1012.6 |
| 20260507020316 | 53 | 5 | 8.0 | 14.0 | 0.00 | 5.24 | 0.01 | 82 | 1012.4 |
| 20260507015814 | 53 | 294 | 6.0 | 17.0 | 0.00 | 5.24 | 0.01 | 83 | 1012.4 |
| 20260507015333 | 53 | 271 | 6.0 | 13.0 | 0.00 | 5.24 | 0.01 | 83 | 1012.4 |
| 20260507014824 | 52 | 327 | 5.0 | 9.0 | 0.00 | 5.24 | 0.01 | 84 | 1012.3 |
| 20260507014321 | 52 | 336 | 3.0 | 7.0 | 0.00 | 5.24 | 0.01 | 86 | 1012.4 |
| 20260507013821 | 52 | 313 | 4.0 | 6.0 | 0.00 | 5.24 | 0.01 | 87 | 1012.5 |
| 20260507013320 | 52 | 286 | 5.0 | 7.0 | 0.00 | 5.24 | 0.01 | 87 | 1012.5 |
| 20260507012817 | 52 | 260 | 6.0 | 7.0 | 0.00 | 5.24 | 0.01 | 88 | 1012.6 |
| 20260507012315 | 51 | 265 | 2.0 | 5.0 | 0.00 | 5.24 | 0.01 | 88 | 1012.5 |
| 20260507011833 | 51 | 252 | 3.0 | 6.0 | 0.00 | 5.24 | 0.01 | 88 | 1012.4 |
| 20260507011330 | 51 | 63 | 1.0 | 3.0 | 0.04 | 5.24 | 0.01 | 87 | 1012.5 |
| 20260507010848 | 52 | 277 | 0.0 | 7.0 | 0.04 | 5.24 | 0.01 | 87 | 1012.4 |
| 20260507010325 | 52 | 277 | 5.0 | 7.0 | 0.04 | 5.24 | 0.01 | 86 | 1012.5 |
| 20260507005823 | 52 | 292 | 4.0 | 5.0 | 0.04 | 5.28 | 0.01 | 85 | 1012.5 |
| 20260507005342 | 53 | 14 | 3.0 | 6.0 | 0.04 | 5.28 | 0.01 | 83 | 1012.6 |
| 20260507004839 | 53 | 300 | 3.0 | 10.0 | 0.04 | 5.28 | 0.01 | 83 | 1012.6 |
| 20260507004357 | 52 | 327 | 5.0 | 10.0 | 0.04 | 5.28 | 0.01 | 83 | 1012.5 |
| 20260507003855 | 52 | 337 | 4.0 | 13.0 | 0.04 | 5.28 | 0.01 | 84 | 1012.6 |
| 20260507003352 | 52 | 340 | 7.0 | 13.0 | 0.04 | 5.28 | 0.01 | 84 | 1012.6 |
| 20260507002829 | 52 | 328 | 6.0 | 11.0 | 0.04 | 5.28 | 0.01 | 85 | 1012.6 |
| 20260507002325 | 52 | 300 | 4.0 | 9.0 | 0.04 | 5.28 | 0.01 | 86 | 1012.8 |
| 20260507001824 | 52 | 313 | 1.0 | 4.0 | 0.04 | 5.28 | 0.01 | 87 | 1012.8 |
| 20260507001341 | 52 | 312 | 2.0 | 9.0 | 0.00 | 5.24 | 0.00 | 87 | 1012.8 |
| 20260507000819 | 52 | 26 | 2.0 | 6.0 | 0.00 | 5.24 | 0.00 | 87 | 1012.7 |
| 20260507000336 | 52 | 321 | 1.0 | 8.0 | 0.00 | 5.24 | 0.00 | 86 | 1012.8 |
| 20260506235837 | 52 | 303 | 3.0 | 8.0 | 0.00 | 5.24 | 0.00 | 86 | 1012.7 |
| 20260506235334 | 52 | 346 | 2.0 | 8.0 | 0.00 | 5.24 | 0.00 | 86 | 1012.7 |
| 20260506234832 | 52 | 265 | 6.0 | 12.0 | 0.00 | 5.24 | 0.00 | 86 | 1012.6 |
| 20260506234330 | 53 | 339 | 7.0 | 12.0 | 0.00 | 5.24 | 0.00 | 84 | 1012.6 |
| 20260506233827 | 53 | 285 | 7.0 | 14.0 | 0.00 | 5.24 | 0.00 | 83 | 1012.5 |
| 20260506233324 | 53 | 22 | 8.0 | 13.0 | 0.00 | 5.24 | 0.00 | 82 | 1012.6 |
| 20260506232822 | 53 | 335 | 7.0 | 13.0 | 0.00 | 5.24 | 0.00 | 82 | 1012.6 |
| 20260506232320 | 53 | 291 | 9.0 | 13.0 | 0.00 | 5.24 | 0.00 | 82 | 1012.6 |
| 20260506231820 | 53 | 245 | 7.0 | 16.0 | 0.00 | 5.24 | 0.00 | 82 | 1012.7 |
| 20260506231335 | 52 | 256 | 10.0 | 16.0 | 0.00 | 5.24 | 0.00 | 83 | 1012.7 |
| 20260506230832 | 52 | 288 | 6.0 | 15.0 | 0.00 | 5.24 | 0.00 | 84 | 1012.5 |
| 20260506230350 | 52 | 245 | 6.0 | 8.0 | 0.00 | 5.24 | 0.00 | 86 | 1012.5 |
| 20260506225827 | 52 | 209 | 4.0 | 5.0 | 0.00 | 5.43 | 0.00 | 85 | 1012.5 |
| 20260506225324 | 52 | 341 | 3.0 | 5.0 | 0.00 | 5.43 | 0.00 | 85 | 1012.5 |
| 20260506224823 | 52 | 267 | 1.0 | 8.0 | 0.00 | 5.43 | 0.00 | 85 | 1012.6 |
| 20260506224318 | 52 | 246 | 4.0 | 11.0 | 0.00 | 5.43 | 0.00 | 84 | 1012.6 |
| 20260506223837 | 53 | 269 | 8.0 | 13.0 | 0.00 | 5.43 | 0.00 | 83 | 1012.5 |
| 20260506223315 | 53 | 319 | 8.0 | 18.0 | 0.00 | 5.43 | 0.00 | 82 | 1012.4 |
| 20260506222833 | 53 | 305 | 7.0 | 18.0 | 0.00 | 5.43 | 0.00 | 81 | 1012.5 |
| 20260506222330 | 53 | 326 | 10.0 | 18.0 | 0.00 | 5.43 | 0.00 | 80 | 1012.6 |
| 20260506221827 | 53 | 312 | 9.0 | 14.0 | 0.00 | 5.43 | 0.00 | 81 | 1012.7 |
| 20260506221322 | 52 | 5 | 6.0 | 12.0 | 0.00 | 5.43 | 0.00 | 83 | 1012.8 |
| 20260506220840 | 52 | 32 | 8.0 | 11.0 | 0.00 | 5.43 | 0.00 | 84 | 1012.7 |
| 20260506220337 | 52 | 313 | 5.0 | 14.0 | 0.00 | 5.43 | 0.00 | 83 | 1012.7 |
| 20260506215826 | 53 | 29 | 8.0 | 14.0 | 0.00 | 5.55 | 1.38 | 83 | 1012.7 |
| 20260506215343 | 53 | 13 | 9.0 | 12.0 | 0.00 | 5.55 | 1.38 | 82 | 1012.8 |
| 20260506214820 | 53 | 330 | 4.0 | 11.0 | 0.00 | 5.55 | 1.38 | 81 | 1012.8 |
| 20260506214318 | 53 | 327 | 7.0 | 15.0 | 0.00 | 5.55 | 1.38 | 80 | 1012.7 |
| 20260506213844 | 54 | 349 | 4.0 | 15.0 | 0.00 | 5.55 | 1.38 | 80 | 1012.6 |
| 20260506213321 | 54 | 303 | 6.0 | 14.0 | 0.00 | 5.55 | 1.38 | 80 | 1012.7 |
| 20260506212820 | 54 | 334 | 7.0 | 13.0 | 0.00 | 5.55 | 1.38 | 79 | 1012.6 |
| 20260506212319 | 54 | 19 | 7.0 | 11.0 | 0.00 | 5.55 | 1.38 | 79 | 1012.7 |
| 20260506211819 | 54 | 19 | 5.0 | 12.0 | 0.00 | 5.55 | 1.38 | 79 | 1012.7 |
| 20260506211336 | 54 | 5 | 6.0 | 12.0 | 0.00 | 5.55 | 1.38 | 78 | 1012.7 |
| 20260506210853 | 55 | 318 | 5.0 | 11.0 | 0.00 | 5.55 | 1.38 | 78 | 1012.6 |
| 20260506210351 | 54 | 350 | 5.0 | 13.0 | 0.00 | 5.55 | 1.38 | 79 | 1012.5 |
| 20260506205828 | 54 | 355 | 6.0 | 13.0 | 0.00 | 5.55 | 1.38 | 82 | 1012.7 |
| 20260506205325 | 53 | 351 | 2.0 | 11.0 | 0.00 | 5.55 | 1.38 | 83 | 1012.4 |
| 20260506204823 | 54 | 9 | 5.0 | 13.0 | 0.00 | 5.55 | 1.38 | 83 | 1012.6 |
| 20260506204347 | 54 | 269 | 10.0 | 14.0 | 0.00 | 5.55 | 1.38 | 83 | 1012.7 |
| 20260506203824 | 54 | 306 | 6.0 | 15.0 | 0.00 | 5.55 | 1.38 | 83 | 1012.6 |
| 20260506203321 | 53 | 281 | 9.0 | 15.0 | 0.00 | 5.55 | 1.38 | 84 | 1012.5 |
| 20260506202835 | 53 | 23 | 8.0 | 12.0 | 0.00 | 5.55 | 1.38 | 83 | 1012.5 |
| 20260506202350 | 53 | 355 | 5.0 | 11.0 | 0.00 | 5.55 | 1.38 | 81 | 1012.6 |
| 20260506201826 | 54 | 355 | 5.0 | 13.0 | 0.00 | 5.55 | 1.38 | 80 | 1012.5 |
| 20260506201324 | 54 | 304 | 8.0 | 12.0 | 0.00 | 5.55 | 1.38 | 79 | 1012.4 |
| 20260506200823 | 54 | 302 | 8.0 | 15.0 | 0.00 | 5.55 | 1.38 | 80 | 1012.4 |
| 20260506200320 | 54 | 286 | 6.0 | 19.0 | 0.00 | 5.55 | 1.38 | 83 | 1012.4 |
| 20260506195822 | 54 | 295 | 7.0 | 24.0 | 0.00 | 5.55 | 1.38 | 88 | 1012.3 |
| 20260506195319 | 54 | 265 | 15.0 | 24.0 | 0.00 | 5.55 | 1.38 | 89 | 1012.3 |
| 20260506194837 | 54 | 285 | 14.0 | 24.0 | 0.00 | 5.55 | 1.38 | 88 | 1012.0 |
| 20260506194340 | 53 | 290 | 13.0 | 24.0 | 0.00 | 5.55 | 1.38 | 87 | 1011.9 |
| 20260506193834 | 54 | 305 | 9.0 | 15.0 | 0.00 | 5.55 | 1.38 | 85 | 1011.6 |
| 20260506193334 | 54 | 262 | 7.0 | 14.0 | 0.00 | 5.55 | 1.38 | 84 | 1011.7 |
| 20260506192831 | 54 | 311 | 9.0 | 19.0 | 0.00 | 5.55 | 1.38 | 83 | 1011.7 |
| 20260506192325 | 54 | 306 | 11.0 | 19.0 | 0.00 | 5.55 | 1.38 | 82 | 1011.7 |
| 20260506191820 | 54 | 306 | 7.0 | 15.0 | 0.00 | 5.55 | 1.38 | 80 | 1011.6 |
| 20260506191317 | 54 | 309 | 5.0 | 15.0 | 0.00 | 5.55 | 1.38 | 81 | 1011.5 |
| 20260506190839 | 54 | 281 | 6.0 | 14.0 | 0.00 | 5.55 | 1.38 | 81 | 1011.6 |
| 20260506190335 | 54 | 305 | 9.0 | 14.0 | 0.00 | 5.55 | 1.38 | 80 | 1011.5 |
| 20260506185835 | 54 | 317 | 9.0 | 14.0 | 0.20 | 5.55 | 1.38 | 80 | 1011.4 |
| 20260506185332 | 54 | 313 | 9.0 | 17.0 | 0.28 | 5.55 | 1.38 | 80 | 1011.2 |
| 20260506184851 | 54 | 323 | 11.0 | 17.0 | 0.31 | 5.55 | 1.38 | 79 | 1011.2 |
| 20260506184326 | 54 | 355 | 5.0 | 16.0 | 0.39 | 5.55 | 1.38 | 80 | 1011.3 |
| 20260506183831 | 54 | 13 | 10.0 | 17.0 | 0.59 | 5.55 | 1.38 | 81 | 1011.1 |
| 20260506183332 | 54 | 355 | 10.0 | 19.0 | 1.22 | 5.55 | 1.38 | 81 | 1010.9 |
| 20260506182829 | 54 | 323 | 13.0 | 24.0 | 1.77 | 5.55 | 1.38 | 81 | 1011.0 |
| 20260506182329 | 54 | 336 | 16.0 | 24.0 | 2.60 | 5.55 | 1.38 | 82 | 1011.1 |
| 20260506181826 | 53 | 346 | 14.0 | 23.0 | 2.64 | 5.55 | 1.38 | 84 | 1011.0 |
| 20260506181341 | 53 | 316 | 9.0 | 20.0 | 2.72 | 5.55 | 1.38 | 85 | 1011.0 |
| 20260506180819 | 53 | 305 | 13.0 | 20.0 | 2.72 | 5.55 | 1.38 | 87 | 1010.8 |
| 20260506180317 | 52 | 325 | 10.0 | 18.0 | 2.68 | 5.51 | 1.37 | 90 | 1010.6 |
| 20260506175834 | 51 | 342 | 7.0 | 18.0 | 2.44 | 5.28 | 1.31 | 93 | 1010.8 |
| 20260506175331 | 51 | 315 | 3.0 | 12.0 | 2.44 | 5.28 | 1.31 | 92 | 1010.9 |
| 20260506174828 | 51 | 340 | 8.0 | 13.0 | 2.40 | 5.24 | 1.30 | 92 | 1010.4 |
| 20260506174324 | 50 | 349 | 9.0 | 14.0 | 2.28 | 5.12 | 1.27 | 92 | 1010.3 |
| 20260506174038 | 50 | 344 | 11.0 | 15.0 | 2.17 | 5.00 | 1.24 | 92 | 1010.1 |
| 20260506172318 | 53 | 269 | 13.0 | 22.0 | 0.08 | 2.91 | 0.71 | 86 | 1009.3 |
| 20260506171818 | 55 | 290 | 18.0 | 22.0 | 0.08 | 2.91 | 0.71 | 83 | 1009.1 |
| 20260506171315 | 58 | 294 | 12.0 | 18.0 | 0.00 | 2.83 | 0.69 | 86 | 1009.1 |
| 20260506170832 | 59 | 294 | 6.0 | 20.0 | 0.00 | 2.83 | 0.69 | 84 | 1008.6 |
| 20260506170330 | 59 | 174 | 5.0 | 19.0 | 0.00 | 2.83 | 0.69 | 82 | 1008.1 |
| 20260506165828 | 59 | 337 | 12.0 | 19.0 | 0.00 | 2.87 | 0.69 | 81 | 1007.9 |
| 20260506165347 | 58 | 26 | 9.0 | 17.0 | 0.00 | 2.87 | 0.69 | 83 | 1008.0 |
| 20260506164841 | 58 | 24 | 4.0 | 11.0 | 0.00 | 2.87 | 0.69 | 84 | 1008.1 |
| 20260506164340 | 58 | 38 | 7.0 | 11.0 | 0.00 | 2.87 | 0.69 | 84 | 1008.2 |
| 20260506163816 | 59 | 219 | 4.0 | 13.0 | 0.00 | 2.87 | 0.69 | 81 | 1008.3 |
| 20260506163334 | 59 | 310 | 9.0 | 13.0 | 0.00 | 2.87 | 0.69 | 81 | 1008.0 |
| 20260506162834 | 59 | 36 | 8.0 | 11.0 | 0.00 | 2.87 | 0.69 | 80 | 1008.0 |
| 20260506162352 | 59 | 30 | 7.0 | 10.0 | 0.00 | 2.87 | 0.69 | 78 | 1008.1 |
| 20260506161850 | 59 | 27 | 7.0 | 10.0 | 0.00 | 2.87 | 0.69 | 79 | 1008.3 |
| 20260506161328 | 59 | 50 | 3.0 | 7.0 | 0.00 | 2.87 | 0.69 | 81 | 1008.4 |
| 20260506160847 | 59 | 238 | 0.0 | 2.0 | 0.00 | 2.87 | 0.69 | 79 | 1008.5 |
| 20260506160325 | 59 | 238 | 1.0 | 4.0 | 0.00 | 2.99 | 0.69 | 80 | 1008.6 |
| 20260506155822 | 60 | 238 | 3.0 | 8.0 | 0.00 | 2.99 | 0.69 | 78 | 1008.6 |
| 20260506155322 | 60 | 351 | 6.0 | 10.0 | 0.00 | 2.99 | 0.69 | 76 | 1008.4 |
| 20260506154820 | 60 | 60 | 6.0 | 10.0 | 0.00 | 2.99 | 0.69 | 76 | 1008.3 |
| 20260506154318 | 60 | 24 | 3.0 | 10.0 | 0.00 | 2.99 | 0.69 | 76 | 1008.3 |
| 20260506153816 | 60 | 26 | 5.0 | 10.0 | 0.00 | 2.99 | 0.69 | 77 | 1008.4 |
| 20260506153333 | 59 | 47 | 2.0 | 8.0 | 0.00 | 2.99 | 0.69 | 81 | 1008.5 |
| 20260506152832 | 59 | 287 | 3.0 | 10.0 | 0.00 | 2.99 | 0.69 | 79 | 1008.6 |
| 20260506152328 | 59 | 49 | 5.0 | 11.0 | 0.00 | 2.99 | 0.69 | 78 | 1008.5 |
| 20260506151825 | 59 | 41 | 7.0 | 11.0 | 0.00 | 2.99 | 0.69 | 79 | 1008.6 |
| 20260506151349 | 59 | 17 | 8.0 | 13.0 | 0.00 | 2.99 | 0.69 | 79 | 1008.6 |
| 20260506150825 | 59 | 21 | 7.0 | 13.0 | 0.00 | 2.99 | 0.69 | 79 | 1008.7 |
| 20260506150323 | 59 | 44 | 6.0 | 10.0 | 0.00 | 3.03 | 0.69 | 80 | 1008.9 |
| 20260506145820 | 59 | 25 | 6.0 | 11.0 | 0.00 | 3.03 | 0.69 | 81 | 1008.8 |
| 20260506145318 | 59 | 103 | 6.0 | 11.0 | 0.00 | 3.03 | 0.69 | 80 | 1008.8 |
| 20260506144834 | 59 | 53 | 5.0 | 11.0 | 0.00 | 3.03 | 0.69 | 80 | 1009.0 |
| 20260506144332 | 58 | 351 | 6.0 | 10.0 | 0.00 | 3.03 | 0.69 | 81 | 1009.1 |
| 20260506143831 | 58 | 261 | 3.0 | 12.0 | 0.00 | 3.03 | 0.69 | 83 | 1009.2 |
| 20260506143328 | 58 | 44 | 7.0 | 13.0 | 0.00 | 3.03 | 0.69 | 79 | 1009.2 |
| 20260506142824 | 58 | 22 | 8.0 | 13.0 | 0.00 | 3.03 | 0.69 | 81 | 1009.4 |
| 20260506142323 | 58 | 53 | 7.0 | 11.0 | 0.00 | 3.03 | 0.69 | 82 | 1009.5 |
| 20260506141849 | 59 | 53 | 4.0 | 10.0 | 0.00 | 3.03 | 0.69 | 80 | 1009.6 |
| 20260506141322 | 58 | 22 | 5.0 | 10.0 | 0.00 | 3.03 | 0.69 | 80 | 1009.7 |
| 20260506140820 | 58 | 45 | 6.0 | 12.0 | 0.00 | 3.03 | 0.69 | 82 | 1009.7 |
| 20260506140337 | 57 | 28 | 8.0 | 12.0 | 0.00 | 3.03 | 0.69 | 81 | 1009.8 |
| 20260506135856 | 58 | 351 | 7.0 | 12.0 | 0.00 | 3.07 | 0.69 | 82 | 1009.7 |
| 20260506135332 | 58 | 69 | 6.0 | 12.0 | 0.00 | 3.07 | 0.69 | 83 | 1009.9 |
| 20260506134829 | 58 | 63 | 5.0 | 13.0 | 0.00 | 3.07 | 0.69 | 81 | 1009.9 |
| 20260506134328 | 58 | 23 | 6.0 | 13.0 | 0.00 | 3.07 | 0.69 | 80 | 1010.0 |
| 20260506133826 | 57 | 33 | 4.0 | 10.0 | 0.00 | 3.07 | 0.69 | 82 | 1010.1 |
| 20260506133319 | 57 | 5 | 5.0 | 11.0 | 0.00 | 3.07 | 0.69 | 80 | 1010.1 |
| 20260506132901 | 57 | 9 | 8.0 | 11.0 | 0.00 | 3.07 | 0.69 | 81 | 1010.1 |
| 20260506132336 | 57 | 17 | 5.0 | 13.0 | 0.00 | 3.07 | 0.69 | 82 | 1010.0 |
| 20260506131832 | 57 | 5 | 8.0 | 14.0 | 0.00 | 3.07 | 0.69 | 83 | 1010.2 |
| 20260506131330 | 56 | 22 | 10.0 | 15.0 | 0.00 | 3.07 | 0.69 | 84 | 1010.1 |
| 20260506130827 | 56 | 42 | 11.0 | 15.0 | 0.00 | 3.07 | 0.69 | 85 | 1010.2 |
| 20260506130324 | 55 | 20 | 10.0 | 15.0 | 0.00 | 3.15 | 0.69 | 86 | 1010.2 |
| 20260506125823 | 55 | 360 | 9.0 | 15.0 | 0.00 | 3.15 | 0.69 | 87 | 1010.3 |
| 20260506125340 | 55 | 24 | 11.0 | 15.0 | 0.00 | 3.15 | 0.69 | 87 | 1010.2 |
| 20260506124819 | 54 | 13 | 11.0 | 13.0 | 0.00 | 3.15 | 0.69 | 89 | 1010.1 |
| 20260506124338 | 55 | 350 | 6.0 | 13.0 | 0.00 | 3.15 | 0.69 | 89 | 1010.2 |
| 20260506123833 | 54 | 16 | 8.0 | 13.0 | 0.00 | 3.15 | 0.69 | 91 | 1010.1 |
| 20260506123331 | 55 | 32 | 7.0 | 13.0 | 0.00 | 3.15 | 0.69 | 91 | 1010.3 |
| 20260506122826 | 55 | 14 | 8.0 | 13.0 | 0.00 | 3.15 | 0.69 | 91 | 1010.3 |
| 20260506122322 | 55 | 17 | 4.0 | 12.0 | 0.04 | 3.15 | 0.69 | 92 | 1010.3 |
| 20260506121819 | 55 | 69 | 8.0 | 13.0 | 0.08 | 3.15 | 0.69 | 93 | 1010.2 |
| 20260506121316 | 55 | 44 | 2.0 | 9.0 | 0.08 | 3.15 | 0.69 | 95 | 1010.4 |
| 20260506120834 | 54 | 351 | 2.0 | 6.0 | 0.12 | 3.15 | 0.69 | 95 | 1010.4 |
| 20260506120331 | 54 | 223 | 2.0 | 6.0 | 0.20 | 3.15 | 0.69 | 95 | 1010.5 |
| 20260506115849 | 54 | 244 | 4.0 | 11.0 | 0.31 | 3.15 | 0.69 | 95 | 1010.5 |
| 20260506115326 | 53 | 35 | 5.0 | 11.0 | 0.35 | 3.15 | 0.69 | 95 | 1010.5 |
| 20260506114846 | 53 | 59 | 2.0 | 9.0 | 0.39 | 3.15 | 0.69 | 96 | 1010.6 |
| 20260506114319 | 53 | 16 | 5.0 | 9.0 | 0.63 | 3.15 | 0.69 | 96 | 1010.5 |
| 20260506113817 | 53 | 5 | 1.0 | 9.0 | 0.71 | 3.15 | 0.69 | 96 | 1010.6 |
| 20260506113317 | 52 | 74 | 2.0 | 4.0 | 0.91 | 3.15 | 0.69 | 96 | 1010.8 |
| 20260506112814 | 52 | 74 | 1.0 | 5.0 | 1.02 | 3.11 | 0.68 | 96 | 1010.8 |
| 20260506112333 | 53 | 74 | 2.0 | 5.0 | 1.14 | 3.11 | 0.68 | 96 | 1010.7 |
| 20260506111830 | 53 | 169 | 0.0 | 7.0 | 1.18 | 3.11 | 0.68 | 96 | 1010.7 |
| 20260506111328 | 53 | 252 | 3.0 | 10.0 | 1.18 | 3.07 | 0.67 | 95 | 1010.6 |
| 20260506110829 | 52 | 260 | 4.0 | 10.0 | 1.14 | 3.03 | 0.66 | 95 | 1010.6 |
| 20260506110325 | 53 | 50 | 4.0 | 10.0 | 1.06 | 2.95 | 0.64 | 95 | 1010.6 |
| 20260506105830 | 53 | 245 | 1.0 | 4.0 | 0.98 | 2.83 | 0.61 | 95 | 1010.7 |
| 20260506105327 | 53 | 136 | 0.0 | 3.0 | 0.98 | 2.80 | 0.60 | 95 | 1010.4 |
| 20260506104827 | 53 | 248 | 1.0 | 7.0 | 1.02 | 2.76 | 0.59 | 95 | 1010.8 |
| 20260506104321 | 53 | 234 | 6.0 | 7.0 | 0.83 | 2.52 | 0.53 | 95 | 1010.7 |
| 20260506103841 | 53 | 336 | 2.0 | 11.0 | 0.75 | 2.44 | 0.51 | 94 | 1010.6 |
| 20260506103338 | 53 | 148 | 3.0 | 12.0 | 0.55 | 2.24 | 0.46 | 94 | 1010.7 |
| 20260506102836 | 53 | 123 | 0.0 | 3.0 | 0.43 | 2.09 | 0.42 | 93 | 1010.7 |
| 20260506102331 | 53 | 300 | 0.0 | 4.0 | 0.35 | 1.97 | 0.39 | 93 | 1010.9 |
| 20260506101830 | 53 | 300 | 0.0 | 4.0 | 0.31 | 1.93 | 0.38 | 93 | 1010.7 |
| 20260506101329 | 53 | 325 | 3.0 | 5.0 | 0.28 | 1.89 | 0.37 | 93 | 1010.8 |
| 20260506100848 | 53 | 310 | 2.0 | 5.0 | 0.28 | 1.89 | 0.37 | 93 | 1010.9 |
| 20260506100346 | 53 | 284 | 4.0 | 7.0 | 0.24 | 1.85 | 0.36 | 93 | 1010.9 |
| 20260506095823 | 53 | 275 | 4.0 | 6.0 | 0.24 | 1.89 | 0.36 | 93 | 1010.9 |
| 20260506095318 | 53 | 293 | 5.0 | 7.0 | 0.16 | 1.81 | 0.34 | 92 | 1011.0 |
| 20260506094817 | 54 | 274 | 3.0 | 5.0 | 0.12 | 1.77 | 0.33 | 91 | 1011.0 |
| 20260506094315 | 54 | 263 | 2.0 | 6.0 | 0.08 | 1.73 | 0.32 | 89 | 1010.7 |
| 20260506093843 | 54 | 32 | 3.0 | 7.0 | 0.08 | 1.73 | 0.32 | 88 | 1010.5 |
| 20260506093320 | 54 | 15 | 2.0 | 9.0 | 0.08 | 1.73 | 0.32 | 88 | 1010.4 |
| 20260506092837 | 54 | 315 | 4.0 | 10.0 | 0.00 | 1.65 | 0.30 | 87 | 1010.6 |
| 20260506092355 | 54 | 310 | 5.0 | 15.0 | 0.00 | 1.65 | 0.30 | 86 | 1010.6 |
| 20260506091849 | 55 | 296 | 8.0 | 15.0 | 0.00 | 1.65 | 0.30 | 85 | 1010.3 |
| 20260506091345 | 55 | 298 | 11.0 | 15.0 | 0.04 | 1.65 | 0.30 | 84 | 1010.3 |
| 20260506090842 | 55 | 351 | 9.0 | 14.0 | 0.04 | 1.65 | 0.30 | 85 | 1010.3 |
| 20260506090317 | 54 | 360 | 9.0 | 14.0 | 0.08 | 1.69 | 0.30 | 86 | 1010.4 |
| 20260506085815 | 54 | 298 | 6.0 | 16.0 | 0.12 | 1.69 | 0.30 | 86 | 1010.3 |
| 20260506085331 | 54 | 308 | 8.0 | 16.0 | 0.12 | 1.69 | 0.30 | 86 | 1010.5 |
| 20260506084829 | 54 | 309 | 10.0 | 17.0 | 0.12 | 1.69 | 0.30 | 85 | 1010.5 |
| 20260506084328 | 54 | 344 | 7.0 | 17.0 | 0.12 | 1.69 | 0.30 | 86 | 1010.6 |
| 20260506083827 | 54 | 339 | 9.0 | 15.0 | 0.12 | 1.69 | 0.30 | 84 | 1010.7 |
| 20260506083327 | 54 | 306 | 11.0 | 17.0 | 0.12 | 1.69 | 0.30 | 84 | 1010.7 |
| 20260506082823 | 54 | 313 | 11.0 | 18.0 | 0.16 | 1.69 | 0.30 | 86 | 1010.7 |
| 20260506082320 | 54 | 333 | 10.0 | 18.0 | 0.20 | 1.69 | 0.30 | 88 | 1010.7 |
| 20260506081818 | 54 | 360 | 10.0 | 15.0 | 0.20 | 1.69 | 0.30 | 89 | 1010.6 |
| 20260506081313 | 53 | 326 | 11.0 | 17.0 | 0.16 | 1.65 | 0.29 | 90 | 1010.7 |
| 20260506080831 | 53 | 21 | 9.0 | 17.0 | 0.16 | 1.65 | 0.29 | 92 | 1010.8 |
| 20260506080328 | 53 | 309 | 9.0 | 16.0 | 0.12 | 1.61 | 0.28 | 94 | 1010.8 |
| 20260506073324 | 54 | 278 | 9.0 | 17.0 | 0.08 | 1.57 | 0.26 | 94 | 1010.5 |
| 20260506072821 | 54 | 290 | 7.0 | 19.0 | 0.08 | 1.57 | 0.26 | 93 | 1010.7 |
| 20260506072321 | 54 | 297 | 13.0 | 19.0 | 0.04 | 1.54 | 0.25 | 93 | 1010.7 |
| 20260506071819 | 54 | 288 | 9.0 | 16.0 | 0.04 | 1.54 | 0.25 | 93 | 1010.6 |
| 20260506071316 | 53 | 336 | 8.0 | 14.0 | 0.04 | 1.54 | 0.25 | 94 | 1010.7 |
| 20260506070814 | 53 | 299 | 7.0 | 17.0 | 0.08 | 1.54 | 0.25 | 94 | 1010.8 |
| 20260506070330 | 53 | 296 | 8.0 | 17.0 | 0.12 | 1.54 | 0.25 | 95 | 1010.9 |